sat.trackr.live / text

‹ back to catalog

STARLINK-31065

NORAD 58627 · 2023-203K

PAYLOAD ACTIVE UNKNOWN

§ Identity

Operator
Country
US
Launch date
2023-12-23
Launch site
AFETR
Launch vehicle
Mass (kg)
RCS (m²)

Purposes: comms

External: N2YO · Heavens-Above · Gunter

§ Orbital elements

Epoch: 2026-05-24T22:15:51.787872Z

Period
94.27 min
Inclination
43.0019°
Eccentricity
0.0001137
Mean motion
15.27582709 rev/d
Perigee alt
482.3 km
Apogee alt
483.8 km
Semi-major
6,861.2 km
B*
8.3240e-5
RAAN
356.3232°
Arg perigee
269.5220°
Mean anomaly
90.5502°
Rev number
13,522

§ Raw data

STARLINK-310651 58627U 23203K   26144.92768273  .00002029  00000+0  83240-4 0  99922 58627  43.0019 356.3232 0001137 269.5220  90.5502 15.27582709135229

JSON: /api/v1/satellites/58627 · /tle

For live sub-satellite position, see the globe view (requires WebGL).

§ Visibility from observer

Set your observer location to see the next 7 days of passes ≥ 10°. The values pass through the URL so the page stays shareable.

No JS? Fill the form by hand. The geolocation button needs JavaScript.